Regional Weather Roundup
Issued by NWS

Home | Current Version | Previous Version | Graphics & Text | Print | Product List | Glossary On
Versions: 1 2 3 4 5 6 7 8 9 10 11 12 13 14 15 16 17 18 19 20 21 22 23 24 25 26 27 28 29 30 31 32 33 34 35 36 37 38 39 40 41 42 43 44 45 46 47 48 49 50
000
ASUS43 KFSD 090802
RWRSD

WEATHER ROUNDUP FOR SOUTH DAKOTA
NATIONAL WEATHER SERVICE SIOUX FALLS SD
200 AM CST FRI DEC 09 2016

NOTE: "FAIR" INDICATES FEW OR NO CLOUDS BELOW 12,000 FEET WITH NO
SIGNIFICANT WEATHER AND/OR OBSTRUCTIONS TO VISIBILITY.


SDZ001>005-009-010-012>017-090900-
NORTHWEST AND NORTH CENTRAL SOUTH DAKOTA

CITY           SKY/WX    TMP DP  RH WIND       PRES   REMARKS
BUFFALO          N/A     -9 -14  78 NE3       30.30F
FAITH            N/A     -5  -6  96 E6        30.45F WCI -18
MOBRIDGE       CLOUDY    -6 -12  75 NW3       30.53F
$$

SDZ012>016-024>037-041>051-057-063-072>074-090900-
SOUTHWEST AND SOUTH CENTRAL SOUTH DAKOTA

CITY           SKY/WX    TMP DP  RH WIND       PRES   REMARKS
RAPID CTY ARPT CLOUDY     2  -4  76 SE6       30.34F WCI  -9
PIERRE         CLOUDY     2  -3  80 E7        30.56S WCI -11
CUSTER         CLOUDY     1  -6  72 N3        30.09F
ELLSWORTH AFB  CLOUDY     1  -5  77 E6        30.32  WCI -11
PHILIP         CLOUDY    -3  -7  82 NE5       30.50F WCI -13
PINE RIDGE     CLOUDY     3  -3  76 E12       30.30F WCI -13
SPEARFISH      FAIR      -9 -15  77 CALM      30.25F
WINNER         FAIR      -2  -8  76 S5        30.53F WCI -12
$$

SDZ004>011-016>023-039-040-090900-
NORTHEAST SOUTH DAKOTA

CITY           SKY/WX    TMP DP  RH WIND       PRES   REMARKS
ABERDEEN       CLEAR     -7 -12  79 W3        30.62S
WATERTOWN      CLEAR     -3  -7  82 NW8       30.54S WCI -18
SISSETON         N/A      0  -6  76 NW9       30.59S WCI -15
$$

SDZ017-020-022-023-036>040-048>070-090900-
SOUTHEAST SOUTH DAKOTA

CITY           SKY/WX    TMP DP  RH WIND       PRES   REMARKS
SIOUX FALLS    CLEAR      2  -1  88 W6        30.59S WCI  -9
HURON          CLEAR     -5  -8  87 W5        30.62F WCI -16
CHAMBERLAIN    CLOUDY     5   2  86 CALM      30.58F
MITCHELL       CLEAR     -1  -5  82 NW6       30.63F WCI -13
YANKTON        CLEAR      1  -2  85 NW5       30.62F WCI  -8
$$

ABBREVIATIONS USED IN REMARKS
   TC - TEMPERATURE IN CELSIUS
  WCI - WIND CHILL INDEX
   HX - HEAT INDEX
  VSB - VISIBILITY





USA.gov is the U.S. government's official web portal to all federal, state and local government web resources and services.